Volver al catálogo

STARLINK-3124

ActivoComunicacionesVLEO
NORAD 49456·PAYLOAD·🇺🇸 United States

Lanzado Nov 13, 2021 desde Cape Canaveral Space Force Station

Loading…

Próximos Pases (próximas 24 horas)

TLE

ActualizadoSource: CelesTrak SupGP

Época: Sep 14, 2026, 21:12 UTC

1 49456C 21104BA  26257.88381944  .00029973  00000+0  90985-3 0  2573
2 49456  53.1577  78.0658 0001197  84.3783  38.0947 15.33521911    16

Sigue STARLINK-3124 en tiempo real con AllMySat

Download on the App Store